Location: Casilda
(33.0440°S, 61.1680°W)
Time: 09:24:50
(UTC-03:00)

ISS - Pass Details

Date: 20 September 2023
Orbit: 413 x 421 km, 51.6° (Epoch: 26 September)

Event Time Altitude Azimuth Distance (km) Brightness Sun altitude
Exits shadow 04:51:56 21° 70° (ENE) 1,006 -1.4 -26.7°
Drops below altitude 10° 04:54:01 10° 105° (ESE) 1,527 0.1 -26.3°
Sets 04:56:25 0° 120° (ESE) 2,400 1.3 -25.8°
